Regional Weather Roundup
Issued by NWS Cleveland, OH

Home | Current Version | Previous Version | Text Only | Print | Product List | Glossary Off
Versions: 1 2 3 4 5 6 7 8 9 10 11 12 13 14 15 16 17 18 19 20 21 22 23 24 25 26 27 28 29 30 31 32 33 34 35 36 37 38 39 40 41 42 43 44 45 46 47 48 49 50

000
ASUS41 KCLE 231710
RWRCLE
OHIO REGIONAL WEATHER ROUNDUP
NATIONAL WEATHER SERVICE CLEVELAND, OH
100 PM EDT WED APR 23 2014

NOTE: "FAIR" INDICATES FEW OR NO CLOUDS BELOW 12,000 FEET WITH NO
SIGNIFICANT WEATHER AND/OR OBSTRUCTIONS TO VISIBILITY.

OHZ001>008-015>018-024>027-034-035-043-044-231800-
   NORTHWEST OHIO

CITY           SKY/WX    TMP DP  RH WIND       PRES   REMARKS
DEFIANCE       MOSUNNY   52  30  43 N9        30.11F
FINDLAY        SUNNY     50  31  48 N8        30.09F
TOLEDO EXPRESS SUNNY     49  29  46 N8G16     30.10S
TOLEDO EXEC    MOSUNNY   49  29  46 VRB6      30.10F
LIMA           SUNNY     49  33  54 N10       30.10S
$$

OHZ009>014-019>023-028>033-038-089-231800-
   NORTHEAST OHIO

CITY           SKY/WX    TMP DP  RH WIND       PRES   REMARKS
CLE-HOPKINS    CLOUDY    44  31  60 NW10      30.11S
CLE-LAKEFRONT  CLOUDY    42  33  70 NW13      30.08R
CUY CO. ARPT   CLOUDY    43  32  65 NW16      30.08R
LORAIN-ELYRIA  CLOUDY    44  32  62 N13       30.10R
ASHTABULA      CLOUDY    41  29  62 NW13G21   30.03S
AKRON-CANTON   CLOUDY    42  30  62 NW16      30.06R
WOOSTER        CLOUDY    41  32  70 NW14      30.08S
MANSFIELD      CLOUDY    43  32  65 NW10      30.08S
YOUNGSTOWN     CLOUDY    39  30  70 NW12G20   30.02S
$$

OHZ042-051>053-060>062-070>072-077>081-231800-
  SOUTHWEST OHIO

CITY           SKY/WX    TMP DP  RH WIND       PRES   REMARKS
CINC-COVINGTON SUNNY     53  30  41 CALM      30.10F
CINC-LUNKEN    SUNNY     52  31  44 VRB3      30.12S
HAMILTON       SUNNY     54  34  46 NW8       30.13R
DAYTON         MOSUNNY   51  34  52 NW7       30.11S
WRIGHT-PAT AFB SUNNY     50  33  53 NW6       30.10S
DAYTON GENERAL SUNNY     52  35  52 VRB3      30.10R
WILMINGTON     SUNNY     51  31  46 VRB3      30.09S
$$

OHZ036-037-039>041-045>050-054>059-063>069-073>076-082>088-231800-
  CENTRAL AND SOUTHEAST OHIO

CITY           SKY/WX    TMP DP  RH WIND       PRES   REMARKS
COLUMBUS       MOSUNNY   52  32  46 N10G18    30.08S
OSU AIRPORT    SUNNY     49  33  54 NW10      30.09S
BOLTON FIELD   MOSUNNY   50  36  57 N8        30.09S
RICKENBACK AFB MOSUNNY   53  31  42 NW9       30.08S
NEWARK         CLOUDY    49  33  54 VRB5      30.07S
MARION         PTSUNNY   46  32  58 VRB6      30.09F
LANCASTER      PTSUNNY   51  33  50 N10G16    30.08S
ZANESVILLE     CLOUDY    47  32  56 NW8       30.07R
NEW PHILLY     CLOUDY    43  31  62 NW13      30.07S
$$



USA.gov is the U.S. government's official web portal to all federal, state and local government web resources and services.